Weather History for Nellis AFB, NV

Change the Weather History Date:

Saturday, November 2, 2013

  Actual Average Record
Temperature  
Mean Temperature 60 °F -  
Max Temperature 76 °F 69 °F 84 °F (1999)
Min Temperature 43 °F 46 °F 41 °F (2004)
Degree Days  
Heating Degree Days 6    
Growing Degree Days 10 (Base 50)    
Moisture  
Dew Point 26 °F    
Average Humidity 34    
Maximum Humidity 46    
Minimum Humidity 16    
Precipitation  
Precipitation 0.00 in - - ()
Sea Level Pressure  
Sea Level Pressure 29.99 in    
Wind  
Wind Speed 3 mph (NNE)    
Max Wind Speed 9 mph    
Max Gust Speed -    
Visibility 9 miles    
Events      
Averages and records for this station are not official NWS values.
T = Trace of Precipitation, MM = Missing Value Source: NWS Daily Summary

Daily Weather History Graph

Daily Weather History Graph

Search for Another Location

Airport:

Trip Planner

Search our weather history database for the weather conditions in past years. The results will help you decide how hot, cold, wet, or windy it might be!

Date:

Astronomy

Nov. 02, 2013 Rise Set
Actual Time 7:04 AM PDT 5:42 PM PDT
Civil Twilight 6:37 AM PDT 6:09 PM PDT
Nautical Twilight 6:07 AM PDT 6:39 PM PDT
Astronomical Twilight 5:37 AM PDT 7:09 PM PDT
Moon 6:07 AM PDT (11/2) 5:16 PM PDT (11/2)
Length of Visible Light 11h 31m
Length of Day
10h 38m
Waning Crescent, 1% of the Moon is Illuminated
Nov 2
Waning Crescent
Nov 3
New
Nov 9
First Quarter
Nov 17
Full
Nov 25
Last Quarter

Hourly Weather History & Observations

Time (PDT) Temp. Dew Point Humidity Pressure Visibility Wind Dir Wind Speed Gust Speed Precip Events Conditions
12:58 AM 49.6 °F 24.8 °F 38% 30.10 in 10.0 mi ENE 5.8 mph - N/A   Clear
1:33 AM 50.0 °F 24.8 °F 37% 30.12 in 9.0 mi Calm Calm - N/A   Clear
1:43 AM 51.8 °F 24.8 °F 35% 30.12 in 10.0 mi Calm Calm - N/A   Clear
1:58 AM 50.4 °F 24.4 °F 36% 30.09 in 10.0 mi North 1.2 mph - N/A   Clear
2:58 AM 49.5 °F 25.7 °F 40% 30.08 in 10.0 mi North 5.8 mph - N/A   Clear
3:58 AM 48.2 °F 25.2 °F 41% 30.06 in 10.0 mi NNW 1.2 mph - N/A   Clear
4:48 AM 46.4 °F 24.8 °F 43% 30.08 in 9.0 mi Calm Calm - N/A   Clear
4:58 AM 47.1 °F 24.8 °F 42% 30.06 in 9.0 mi East 2.3 mph - N/A   Clear
5:08 AM 44.6 °F 24.8 °F 46% 30.08 in 6.0 mi Calm Calm - N/A   Haze
5:13 AM 44.6 °F 24.8 °F 46% 30.08 in 5.0 mi Calm Calm - N/A   Haze
5:18 AM 44.6 °F 23.0 °F 43% 30.08 in 5.0 mi NNE 1.2 mph - N/A   Haze
5:23 AM 44.6 °F 23.0 °F 43% 30.08 in 8.0 mi NNE 2.3 mph - N/A   Clear
5:33 AM 44.6 °F 23.0 °F 43% 30.08 in 9.0 mi NNE 2.3 mph - N/A   Clear
5:53 AM 44.6 °F 24.8 °F 46% 30.08 in 9.0 mi NNW 1.2 mph - N/A   Clear
5:58 AM 44.8 °F 24.3 °F 45% 30.06 in 10.0 mi NW 2.3 mph - N/A   Clear
6:58 AM 45.1 °F 24.3 °F 44% 30.07 in 8.0 mi Calm Calm - N/A   Clear
7:58 AM 43.9 °F 24.1 °F 46% 30.07 in 4.0 mi ENE 2.3 mph - N/A   Haze
8:58 AM 49.5 °F 26.2 °F 40% 30.08 in 10.0 mi Calm Calm - N/A   Clear
9:58 AM 56.5 °F 28.0 °F 34% 30.06 in 10.0 mi SSW 1.2 mph - N/A   Clear
10:58 AM 60.8 °F 28.9 °F 30% 30.04 in 10.0 mi Calm Calm - N/A   Clear
11:58 AM 66.9 °F 29.8 °F 25% 30.00 in 10.0 mi Calm Calm - N/A   Clear
12:58 PM 71.4 °F 29.3 °F 21% 29.94 in 10.0 mi ENE 9.2 mph - N/A   Clear
1:58 PM 72.5 °F 28.6 °F 20% 29.91 in 10.0 mi Variable 5.8 mph - N/A   Clear
2:58 PM 73.8 °F 28.2 °F 19% 29.88 in 10.0 mi Variable 2.3 mph - N/A   Clear
3:58 PM 76.1 °F 27.1 °F 16% 29.86 in 10.0 mi West 2.3 mph - N/A   Clear
4:58 PM 73.2 °F 27.7 °F 18% 29.83 in 10.0 mi WSW 1.2 mph - N/A   Clear
5:58 PM 70.0 °F 27.7 °F 21% 29.83 in 10.0 mi ENE 4.6 mph - N/A   Clear
6:58 PM 65.3 °F 27.0 °F 24% 29.82 in 10.0 mi ENE 4.6 mph - N/A   Clear
7:58 PM 62.4 °F 27.5 °F 27% 29.84 in 10.0 mi ESE 3.5 mph - N/A   Clear
8:58 PM 59.2 °F 26.4 °F 29% 29.82 in 10.0 mi NE 4.6 mph - N/A   Clear
9:58 PM 57.6 °F 25.5 °F 29% 29.81 in 10.0 mi SSE 2.3 mph - N/A   Clear
10:58 PM 54.1 °F 24.6 °F 32% 29.81 in 10.0 mi North 3.5 mph - N/A   Clear
11:58 PM 51.3 °F 23.9 °F 34% 29.80 in 10.0 mi NE 8.1 mph - N/A   Clear